Regional Weather Roundup
Issued by NWS

Home | Current Version | Previous Version | Graphics & Text | Print | Product List | Glossary On
Versions: 1 2 3 4 5 6 7 8 9 10 11 12 13 14 15 16 17 18 19 20 21 22 23 24 25 26 27 28 29 30 31 32 33 34 35 36 37 38 39 40 41 42 43 44 45 46 47 48 49 50
000
ASUS43 KLMK 171610
RWRKY
KENTUCKY REGIONAL WEATHER ROUNDUP
NATIONAL WEATHER SERVICE LOUISVILLE KY
1100 AM EST SAT FEB 17 2018

NOTE "FAIR" INDICATES FEW OR NO CLOUDS BELOW 12,000 FEET
WITH NO SIGNIFICANT WEATHER AND/OR OBSTRUCTIONS TO VISIBILITY.

KYZ001>023-026-027-061>063-070>075-171700-
WESTERN AND SOUTH CENTRAL KENTUCKY

CITY           SKY/WX    TMP DP  RH WIND       PRES   REMARKS
PADUCAH        RAIN      37  34  89 SE6       30.08S FOG     WCI  32
HENDERSON      LGT RAIN  34  33  96 E5        30.13F FOG     WCI  30
OWENSBORO      LGT SNOW  36  33  89 E9        30.11F FOG     WCI  29
HOPKINSVILLE   HVY RAIN  37  37 100 N9        30.12S FOG     WCI  31
BOWLING GREEN  HVY RAIN  39  38  96 N7        30.12R FOG     WCI  34
GLASGOW        MIX PCPN  38  38 100 NW9       30.15R WCI  32
$$

KYZ024-025-028>034-038-045-046-053-171700-
NORTH CENTRAL KENTUCKY

CITY           SKY/WX    TMP DP  RH WIND       PRES   REMARKS
LOUISVILLE/SDF CLOUDY    38  31  76 N7        30.16R WCI  33
LOUISVILLE/LOU CLOUDY    38  31  76 N5        30.16R WCI  34
FORT KNOX      LGT RAIN  36  32  87 CALM      30.15S
$$

KYZ035>037-039>044-047>052-055>060-089>105-171700-
NORTHEAST KENTUCKY

CITY           SKY/WX    TMP DP  RH WIND       PRES   REMARKS
LEXINGTON      CLOUDY    37  32  82 N7        30.14R WCI  32
COVINGTON      CLOUDY    35  29  78 CALM      30.16R
FRANKFORT      CLOUDY    37  29  72 NE3       30.13R
$$

KYZ054-064>069-076>088-106>120-171700-
SOUTHEAST KENTUCKY

CITY           SKY/WX    TMP DP  RH WIND       PRES   REMARKS
JACKSON        CLOUDY    38  35  89 CALM      30.05F
LONDON         LGT RAIN  41  39  93 SE5       30.02F FOG
SOMERSET       LGT RAIN  39  39 100 CALM      30.06F
MIDDLESBORO    RAIN      42  41  95 CALM      30.08F
MONTICELLO     NOT AVBL
$$





USA.gov is the U.S. government's official web portal to all federal, state and local government web resources and services.